Regional Weather Roundup
Issued by NWS Sterling, VA

Home | Current Version | Previous Version | Text Only | Print | Product List | Glossary On
Versions: 1 2 3 4 5 6 7 8 9 10 11 12 13 14 15 16 17 18 19 20 21 22 23 24 25 26 27
000
ASUS41 KLWX 011710
RWRLWX

REGIONAL WEATHER ROUNDUP
NATIONAL WEATHER SERVICE BALTIMORE MD/WASHINGTON DC
100 PM EDT SUN MAY 01 2016

Note: "FAIR" indicates few or no clouds below 12,000 feet
with no significant weather and/or obstructions to visibility.
 TC=TEMPERATURE CELSIUS

 * =Non NWS site. Station does not report precipitation (e.g. rain,
    snow, etc.), thunder, or fog.

DCZ001-MDZ009-015-VAZ040>042-051-053>054-011800-
WASHINGTON METRO

CITY           SKY/WX    TMP DP  RH WIND       PRES   REMARKS
WASHINGTON NAT CLOUDY    56  53  90 S8        30.09R
DULLES         CLOUDY    55  53  93 S6        30.07R
ANDREWS AFB    CLOUDY    54  52  94 SE8       30.07R
FT BELVOIR     CLOUDY    56  53  90 SE6       30.08S
QUANTICO       CLOUDY    58  55  90 S9        30.09R
COLLEGE PARK*  CLOUDY    54  52  94 CALM      30.09R
LEESBURG*      CLOUDY    55  55 100 S9        30.07F
MANASSAS*      CLOUDY    55  54  94 S7        30.08R
GAITHERSBURG*  CLOUDY    54  50  87 SE8       30.11F

$$

MDZ006>007-011-014-011800-
BALTIMORE METRO

CITY           SKY/WX    TMP DP  RH WIND       PRES   REMARKS
BWI AIRPORT    CLOUDY    53  51  93 CALM      30.09S
MD SCIENCE CTR   N/A     53  50  89 MISG      30.12R
MARTIN STATE   LGT RAIN  54  54 100 SE8       30.12S
ANNAPOLIS      LGT RAIN  53  52  96 SE15      30.08F
FORT MEADE*    CLOUDY    52  50  93 CALM      30.12R

$$

MDZ012-015-019>023-011800-
MARYLAND EASTERN SHORE

CITY           SKY/WX    TMP DP  RH WIND       PRES   REMARKS
OCEAN CITY     CLOUDY    53  50  89 E8        30.10F
SALISBURY      HVY RAIN  53  52  96 E7        30.10S FOG
CAMBRIDGE*       N/A     52  52 100 E7        30.09F
EASTON*        RAIN     N/A N/A N/A E5          N/A

$$

MDZ017>025-011800-
SOUTHERN MARYLAND

CITY           SKY/WX    TMP DP  RH WIND       PRES   REMARKS
PATUXENT RIVER RAIN      54  53  97 SE10      30.08F FOG
ST INIGOES       N/A    N/A N/A N/A MISG        N/A
LEONARDTOWN*   CLOUDY    54  52  94 SE6       30.10F

$$

MDZ003>005-011800-
NORTH CENTRAL MARYLAND

CITY           SKY/WX    TMP DP  RH WIND       PRES   REMARKS
FREDERICK*     CLOUDY    55  55 100 S8        30.09F
HAGERSTOWN APT CLOUDY    56  52  86 S9        30.04F
WESTMINSTER*   CLOUDY    52  48  87 SE9       30.06F FOG

$$

MDZ501>502-011800-
WESTERN MARYLAND

CITY           SKY/WX    TMP DP  RH WIND       PRES   REMARKS
OAKLAND*       PTSUNNY   63  54  72 W7G18     30.02S
CUMBERLAND*    CLOUDY    64  57  77 NW3       30.03F

$$

VAZ025>031-011800-
SHENANDOAH VALLEY

CITY           SKY/WX    TMP DP  RH WIND       PRES   REMARKS
WINCHESTER*    CLOUDY    61  54  77 SE7       30.02F
FRONT ROYAL*   FAIR      64  59  82 E6        30.00F
LURAY*         FAIR      68  61  77 S7        30.00F
NEW MARKET*    PTSUNNY   65  58  75 SW8       29.99F
STAUNTON*      FAIR      67  60  78 SE6       30.03S
WAYNESBORO*    FAIR      64  57  80 MISG      30.02F

$$

WVZ021-048>050-054>055-011800-
EASTERN WEST VIRGINIA PANHANDLE

CITY           SKY/WX    TMP DP  RH WIND       PRES   REMARKS
MARTINSBURG    CLOUDY    58  53  84 SE10      30.03S
PETERSBURG*    FAIR      74  61  63 CALM      29.97S

$$

VAZ036>039-050-011800-
CENTRAL FOOTHILLS

CITY           SKY/WX    TMP DP  RH WIND       PRES   REMARKS
CHARLOTTESVILL CLOUDY    59  54  83 CALM      30.05F
CULPEPER*      CLOUDY    58  55  89 S5        30.07F
ORANGE*        CLOUDY    61  55  82 SW3       30.06F
GORDONSVILLE*  CLOUDY    60  56  86 SW5       30.04F
WARRENTON*     CLOUDY    58  51  77 S6        30.05F

$$

VAZ055>057-011800-
NORTH AND CENTRAL PIEDMONT

CITY           SKY/WX    TMP DP  RH WIND       PRES   REMARKS
FREDERICKSBRG* CLOUDY    60  59  94 S6        30.06S
STAFFORD*      CLOUDY    60  55  84 S8        30.11R

$$

NCZ024-NYZ072-PAZ021-071-VAZ022-071-011800-
OTHER REGIONAL OBSERVATIONS

CITY           SKY/WX    TMP DP  RH WIND       PRES   REMARKS
NEW YORK CITY  LGT RAIN  47  43  86 MISG      30.19F
PHILADELPHIA   LGT RAIN  51  47  86 E10       30.13F
PITTSBURGH     CLOUDY    66  60  81 W9G17     29.95F
ROANOKE        PTSUNNY   65  59  81 E5        30.07F
RICHMOND       CLOUDY    57  55  93 CALM      30.09F
RALEIGH        CLOUDY    67  65  93 S10G22    30.08F

$$

ANZ530>537-011800-
MARINE OBSERVATIONS

STATION/POSITION TIME  TEMP    WIND        PRES
                       AIR SEA DIR/SP/G
                 (UTC) (F)     (DEG/KT/KT) (MB)
THOMAS PT LIGHT  1700   52 57  140/ 13/ 14 1019.9F
BALT KEY BRIDGE  1600   52     120/ 11/ 13 1018.8F
COVE POINT       1600   53     170/  7/  9 1020.4R
LEWISETTA        1600   56 59  120/  3/  4 1018.7F
SOLOMONS ISLAND  1600   54 58  130/  8/  9   N/A
PINEY POINT      1600          130/ 10/ 11   N/A

$$





USA.gov is the U.S. government's official web portal to all federal, state and local government web resources and services.